Hourly Weather Roundup
Issued by NWS Central Illinois

Home | Current Version | Previous Version | Graphics & Text | Print | Product List | Glossary On
Versions: 1 2 3 4 5 6 7 8 9 10 11 12 13 14 15 16 17 18 19 20 21 22 23 24 25 26 27 28 29 30 31 32 33 34 35 36 37 38 39 40 41 42 43 44 45 46 47 48 49 50
000
NZUS43 KILX 212110
HWRILX

Area Weather Roundup
National Weather Service Lincoln IL
400 PM CDT WED JUN 21 2017

NOTE:  "FAIR" indicates few or no clouds below 12,000 feet, with
       no sigificant weather and/or obstructions to visibility.


CITY           SKY/WX    TMP DP  RH WIND       PRES   REMARKS
Bloomington    CLOUDY    76  67  73 E6        29.94F
Champaign      CLOUDY    82  68  62 E3        29.95R HX  85
Danville       CLOUDY    85  66  54 SW3       29.93R HX  87
Decatur        PTSUNNY   84  70  62 VRB3      29.94S HX  88
Effingham      LGT RAIN  86  72  62 S7        29.95F HX  92
Flora          MOSUNNY  N/A N/A N/A S10       29.94F
Galesburg      SUNNY     79  67  66 SE7       29.91F HX  81
Jacksonville   MOSUNNY   88  70  54 S8        29.90F HX  93
Lacon          PTSUNNY   78  64  62 SE7       29.89F HX  80
Lawrenceville  CLOUDY    94  67  41 SW12      29.93F HX  97
Litchfield     PTSUNNY   89  70  53 SW8       29.93F HX  93
$$


CITY           SKY/WX    TMP DP  RH WIND       PRES   REMARKS
Lincoln        MOSUNNY   85  68  56 S5        29.92F HX  88
Macomb         MOSUNNY   84  70  62 SE7       29.93F HX  88
Mattoon        CLOUDY    87  72  60 CALM      29.93F HX  93
Mt Carmel AP   PTSUNNY   91  66  43 SW15      29.94F HX  93
Olney-Noble AP CLOUDY    91  68  47 S12       29.94F HX  95
Paris AP       CLOUDY    84  71  64 W7        29.95S HX  89
Peoria         MOSUNNY   80  67  64 E7        29.91F HX  82
Pontiac        CLOUDY    81  65  58 E8        29.93F HX  82
Rantoul        CLOUDY    84  65  53 CALM      29.95S HX  86
Robinson       PTSUNNY   91  71  52 SW9       29.94F HX  97
Springfield    SUNNY     89  73  59 S6        29.92F HX  97
Taylorville    SUNNY     88  71  58 CALM      29.92F HX  94
$$

...REGIONAL REPORTS...


CITY           SKY/WX    TMP DP  RH WIND       PRES   REMARKS
Chicago O`Hare CLOUDY    76  52  43 E13       29.93F
Kankakee       CLOUDY    79  58  48 S3        29.95F HX  80
Moline         CLOUDY    74  62  66 S10       29.88S
Mount Sterling SUNNY     86  73  65 SE8       29.90F HX  93
Mount Vernon   CLOUDY    93  69  45 S9        29.94F HX  98
Pittsfield     SUNNY     90  69  50 S9        29.91F HX  95
Quincy         SUNNY     89  69  51 SE9       29.89F HX  93
Rockford       PTSUNNY   80  55  42 SE8       29.90F HX  80
$$


CITY           SKY/WX    TMP DP  RH WIND       PRES   REMARKS
Burlington     SUNNY     84  69  60 SE7       29.88F HX  88
Cedar Rapids   CLOUDY    70  67  90 SE9       29.84F
Des Moines     MOSUNNY   84  71  65 SE13      29.76F HX  89
Kirksville     MOSUNNY   90  68  48 SW12G20   29.88F HX  94
Ottumwa        LGT RAIN  83  71  67 SE14      29.83F HX  87
St Louis       MOSUNNY   95  61  32 S7        29.92S HX  95
$$


CITY           SKY/WX    TMP DP  RH WIND       PRES   REMARKS
Terre Haute    CLOUDY    88  70  55 W7        29.93F HX  93
Evansville     CLOUDY    89  65  44 S15       29.97S HX  91
Indianapolis   MOSUNNY   86  68  54 W5        29.94F HX  89
Lafayette      SUNNY     83  64  52 VRB6      29.93F HX  84
Madison        CLOUDY    77  55  46 S8        29.89F
Milwaukee      CLOUDY    73  53  49 SE14      29.92F
$$






USA.gov is the U.S. government's official web portal to all federal, state and local government web resources and services.